Location: Strawberry
(45.6646°N, 111.9596°W)
Time: 23:56:36
(UTC+00:00)

Courier 1B Rocket - Pass Details

Date: 08 October 2022
Orbit: 920 x 1202 km, 28.3° (Epoch: 03 December)

Event Time Altitude Azimuth Distance (km) Brightness Sun altitude
Rises 23:14:08 0° 210° (SSW) 3,989 9.2 15.9°
Reaches altitude 10° 23:19:27 10° 179° (S) 2,961 7.9 15.0°
Maximum altitude 23:21:35 11° 162° (SSE) 2,825 7.6 14.7°
Drops below altitude 10° 23:23:41 10° 144° (SE) 2,901 7.4 14.4°
Sets 23:28:42 0° 113° (ESE) 3,778 7.7 13.6°
